Regional Weather Roundup
Issued by NWS

Home | Current Version | Previous Version | Text Only | Print | Product List | Glossary On
Versions: 1 2 3 4 5 6 7 8 9 10 11 12 13 14 15 16 17 18 19 20 21 22 23 24 25 26 27 28 29 30 31 32 33 34 35 36 37 38 39 40 41 42 43 44 45 46 47 48 49 50
000
ASUS43 KMKX 311911
RWRWI

WISCONSIN REGIONAL WEATHER ROUNDUP
NATIONAL WEATHER SERVICE MILWAUKEE/SULLIVAN WI
200 PM CDT WED AUG 31 2016

NOTE: "FAIR" INDICATES FEW OR NO CLOUDS BELOW 12,000 FEET WITH NO
SIGNIFICANT WEATHER AND/OR OBSTRUCTIONS TO VISIBILITY.

WIZ001-002-006>008-014>016-023>028-312000-
NORTHWEST WISCONSIN

CITY           SKY/WX    TMP DP  RH WIND       PRES   REMARKS
SUPERIOR ARPT  PTSUNNY   74  54  48 NE8       30.19S
ASHLAND        PTSUNNY   74  57  55 VRB7      30.20R
HAYWARD        MOSUNNY   72  52  49 VRB3      30.20S
SIREN          SUNNY     74  46  37 N9        30.20S
CUMBERLAND     SUNNY     70  46  43 NW7       30.20F
RICE LAKE      SUNNY     74  51  45 N5        30.21S
CHETEK         NOT AVBL
LADYSMITH      MOSUNNY   74  51  44 N8        30.20S
EAU CLAIRE     SUNNY     77  51  40 N9        30.17S
MENOMONIE      SUNNY     75  50  41 N3        30.19R
NEW RICHMOND   SUNNY     74  50  41 NW9       30.20F
OSCEOLA        SUNNY     75  52  45 N8        30.23S
$$

WIZ003>005-009-010-017-018-312000-
NORTH CENTRAL WISCONSIN

CITY           SKY/WX    TMP DP  RH WIND       PRES   REMARKS
MANITOWISH WTR NOT AVBL
ARBOR VITAE    PTSUNNY   69  54  57 N10G16    30.19S
WOODRUFF       PTSUNNY   69  54  57 N10G16    30.19S
RHINELANDER    CLOUDY    70  55  59 N6        30.18S
EAGLE RIVER    PTSUNNY   67  51  56 NW8G16    30.18R
LAND O LAKES   PTSUNNY   68  52  56 NW5       30.19S
PHILLIPS       PTSUNNY   70  53  56 N7        30.18S
TOMAHAWK       PTSUNNY   69  52  54 NW6       30.18S
MEDFORD        MOSUNNY   71  53  51 N7        30.17F
MERRILL        MOSUNNY   73  52  47 N6        30.17S
$$

WIZ029-030-035-036-043>047-312000-
CENTRAL WISCONSIN

CITY           SKY/WX    TMP DP  RH WIND       PRES   REMARKS
WAUSAU         PTSUNNY   73  52  47 N10       30.15S
MOSINEE        NOT AVBL
MARSHFIELD     PTSUNNY   76  52  43 N7        30.16S
STEVENS POINT  MOSUNNY   71  51  49 N7        30.16S
WAUPACA        PTSUNNY   78  52  39 NW8       30.13F
WAUTOMA        MOSUNNY   76  53  44 N6        30.13F
WISC RAPIDS    MOSUNNY   77  54  44 N9        30.16S
CAMP DOUGLAS   MOSUNNY   77  55  47 NW10      30.14S
$$

WIZ011>013-019>022-031-037>040-048>050-312000-
NORTHEAST WISCONSIN

CITY           SKY/WX    TMP DP  RH WIND       PRES   REMARKS
ANTIGO         MOSUNNY   72  52  49 N8        30.17R
SHAWANO        MOSUNNY   76  54  46 N8        30.13F
OCONTO         NOT AVBL
STURGEON BAY   PTSUNNY   72  53  51 N9        30.13
GREEN BAY      PTSUNNY   75  56  51 NE10      30.12S
MANITOWOC      CLOUDY    74  54  49 NE6       30.12S
APPLETON       PTSUNNY   73  50  43 N10       30.12S
CLINTONVILLE   CLOUDY    73  50  43 N9        30.13S
OSHKOSH        MOSUNNY   76  53  44 N12       30.11F
$$

WIZ032>034-041-042-053>061-312000-
SOUTHWEST WISCONSIN

CITY           SKY/WX    TMP DP  RH WIND       PRES   REMARKS
LA CROSSE      SUNNY     78  53  41 N8        30.15F
SPARTA         SUNNY     75  53  46 N10       30.16S
VIROQUA        SUNNY     74  56  53 N8        30.17S
BOSCOBEL       SUNNY     80  54  40 NW6       30.14S HX  80
PRAIRIE DU CHI SUNNY     76  53  44 NW8       30.14S
PLATTEVILLE    SUNNY     74  56  54 N10       30.15R
$$

WIZ056-057-062-063-064-067-068-312000-
SOUTH CENTRAL WISCONSIN

CITY           SKY/WX    TMP DP  RH WIND       PRES   REMARKS
REEDSBURG      NOT AVBL
BARABOO/DELLS  SUNNY     75  50  41 NW7       30.14S
LONE ROCK      SUNNY     76  52  43 VRB5      30.14S
MINERAL POINT  SUNNY     75  52  43 N10       30.15S
MADISON        MOSUNNY   76  54  46 NE10G21   30.12S
MIDDLETON      SUNNY     76  53  45 NE7G16    30.13S
WATERTOWN      SUNNY     74  55  50 N9        30.11S
MONROE         SUNNY     73  54  49 N8G16     30.13R
JANESVILLE     MOSUNNY   75  54  46 VRB8      30.10F
$$

WIZ051-052-058>065-066-070>072-312000-
SOUTHEAST WISCONSIN

CITY           SKY/WX    TMP DP  RH WIND       PRES   REMARKS
MILWAUKEE      MOSUNNY   74  53  48 NE15      30.12R
WAUKESHA       MOSUNNY   73  52  46 N9        30.12S
MILWAUKEE/TIMM SUNNY     75  50  41 NE6       30.11S
RACINE         SUNNY     73  55  53 N15G23    30.12S
BURLINGTON     SUNNY     74  53  47 E6        30.10S
KENOSHA        MOSUNNY   75  58  55 N14       30.11S
FOND DU LAC    SUNNY     75  54  47 NE14      30.12F
SHEBOYGAN      MOSUNNY   74  54  49 E12       30.11S
WEST BEND      SUNNY     73  50  43 N6        30.10F
JUNEAU         SUNNY     73  52  47 N6        30.13S
$$

LSZ147-162-312000-
LAKE SUPERIOR

STATION/POSITION TIME  TEMP    WIND        PRES    WAVE
                       AIR SEA DIR/SP/G            HT/PER
                 (UTC) (F)     (DEG/KT/KT) (MB)    (FT/S)
W MID LAKE BUOY  1850   66 68  310/  4/  6 1021.8R   1/ 4
DEVILS ISLAND    1800   65     330/  4/  4 1022.6F
PORT WING        1800   68     310/  3/  4 1022.7
SAXON HARBOR     1840   69      10/  7/  9 1022.4S
$$

LMZ867-665-643>646-312000-
LAKE MICHIGAN

STATION/POSITION TIME  TEMP    WIND        PRES    WAVE
                       AIR SEA DIR/SP/G            HT/PER
                 (UTC) (F)     (DEG/KT/KT) (MB)    (FT/S)
CHAMBERS ISLAND  1800   72     250/  2/  7 1019.3
S GREEN BAY BUOY 1800   68 73   80/  4/  6 1019.5
N MID LAKE BUOY  1850   70 71  330/ 14/ 17 1018.5S   1/ 3
NORTHPORT PIER   1800   70     330/  7/  9 1019.3F
SISTER BAY       1737   75     330/  6/  7   N/A
ALGOMA LAKESHORE 1815          350/  4/  6   N/A
KEWAUNEE LAKESHO 1800   71      80/  5/  8 1019.1F
SHEBOYGAN LAKESH 1900   66      40/ 10/ 10 1019.3S
PORT WASHINGTON  1840   70      60/  4/  6 1020.3S
ATWATER BUOY     1800   68      40/ 10/ 14   N/A
MILWAUKEE LAKESH 1810   66      30/ 11/ 12   N/A
S MID LAKE BUOY  1850   71 75   10/ 19/ 23 1017.5F   5/ 6
KENOSHA   LAKESH 1800   68      20/ 16/ 18 1019.0S
$$

TC  - TEMPERATURE IN CELSIUS
VSB - VISIBILITY IN STATUTE MILES
WCI - WIND CHILL INDEX
HX  - HEAT INDEX





USA.gov is the U.S. government's official web portal to all federal, state and local government web resources and services.